Torna al catalogo

SL-8 DEB

AttivoLEO
NORAD 18274·DEBRIS·🇷🇺 Russia

Lanciato Jul 16, 1986 da Plesetsk Cosmodrome

Loading…

Prossimi Passaggi (prossime 24 ore)

TLE

AggiornatoSource: Space-Track

Epoca: Sep 14, 2026, 13:27 UTC

1 18274U 86052F   26257.56059828  .00001474  00000-0  24095-3 0  9997
2 18274  74.0420 301.4119 0022606 180.6281 331.2424 14.71663184121321

Traccia SL-8 DEB in tempo reale con AllMySat

Download on the App Store